Location: Seattle
(47.6064°N, 122.3308°W)
Time: 02:56:31
(UTC-07:00)

Envisat - Visible Passes

Search period start: 27 October 2020 00:00
Search period end: 05 November 2020 23:00
Orbit: 764 x 766 km, 98.1° (Epoch: 26 October)

Date Brightness Start Highest point End Pass type
(mag) Time Alt. Az. Time Alt. Az. Time Alt. Az.
27 Oct 4.5 06:41:42 10° NNE 06:46:31 41° E 06:51:17 10° SSE visible
27 Oct 6.2 19:40:55 10° SW 19:43:58 16° W 19:47:03 10° NW visible
28 Oct 5.8 06:05:39 10° NE 06:09:24 20° E 06:13:07 10° SE visible
28 Oct 5.0 19:02:15 10° SSW 19:06:47 32° W 19:11:21 10° NNW visible
29 Oct 3.4 07:06:57 10° NNE 07:12:02 69° ESE 07:17:06 10° S visible
29 Oct 3.5 18:24:46 10° S 18:29:48 67° WSW 18:34:54 10° NNW visible
30 Oct 4.9 06:30:28 10° NNE 06:35:04 33° E 06:39:38 10° SSE visible
30 Oct 5.9 19:28:48 10° SW 19:32:28 20° W 19:36:09 10° NW visible
31 Oct 6.1 05:54:44 10° NE 05:57:54 16° E 06:01:03 10° SE visible
31 Oct 4.6 18:50:35 10° SSW 18:55:20 40° W 19:00:08 10° NNW visible
01 Nov 3.9 05:55:37 10° NNE 06:00:38 55° E 06:05:37 10° S visible
01 Nov 3.2 17:13:20 10° SSE 17:18:26 83° WSW 17:23:33 10° NNW visible
01 Nov 6.4 18:56:33 10° WSW 18:58:15 12° W 18:59:57 10° WNW visible
02 Nov 5.3 05:19:18 10° NE 05:23:36 27° E 05:27:53 10° SSE visible
02 Nov 5.5 18:16:52 10° SSW 18:20:58 24° W 18:25:05 10° NW visible
03 Nov 6.3 04:44:02 10° ENE 04:46:21 13° E 04:48:41 10° ESE visible
03 Nov 3.1 06:20:59 10° NNE 06:26:07 89° W 06:31:12 10° SSW visible
03 Nov 4.1 17:39:00 10° S 17:43:54 50° W 17:48:52 10° NNW visible
04 Nov 4.3 05:44:19 10° NNE 05:49:13 44° E 05:54:04 10° S visible
04 Nov 6.2 18:43:55 10° WSW 18:46:42 15° W 18:49:30 10° NW visible
05 Nov 5.6 05:08:12 10° NE 05:12:07 22° E 05:16:01 10° SE visible
05 Nov 5.1 18:05:03 10° SSW 18:09:30 30° W 18:13:58 10° NNW visible
